Home   Weather   Konya   Past weeks
Flag for Turkey

Past Weather in Konya, Turkey — Yesterday and Last 2 Weeks

Now
57 °F

Passing clouds.


Feels Like: 57 °F
Forecast: 74 / 58 °F
Wind: 5 mph from North

Location: Konya Airport

Current Time: Jun 17, 2019 at 6:04:00 am

Latest Report: Jun 17, 2019 at 4:50 am


Visibility: N/A

Pressure: 29.89 "Hg (26.41 "Hg at 1041m altitude)

Humidity: 88%

Dew Point: 54 °F

Location of KonyaLocation

Past Weather in Konya — Graph

°F

Konya Temperature Yesterday

Maximum temperature yesterday: 79 °F (at 2:50 pm)
Minimum temperature yesterday: 55 °F (at 3:50 am)
Average temperature yesterday: 66 °F

High & Low Weather Summary for the Past Weeks

 TemperatureHumidityPressure
High86 °F (Jun 2, 2:20 pm)94% (Jun 11, 2:50 am)30.12 "Hg (Jun 11, 2:50 am)
Low52 °F (Jun 5, 4:50 am)9% (Jun 5, 2:50 pm)29.80 "Hg (Jun 10, 5:50 pm)
Average70 °F51%29.97 "Hg
* Reported Jun 2 4:50 am — Jun 17 4:50 am, Konya. Weather by CustomWeather, © 2019

Note: Actual official high and low records may vary slightly from our data, if they occured in-between our weather recording intervals... More about our weather records

Advertising

Konya Weather History for the Previous 24 Hours

Scroll right to see more
 ConditionsComfort  
Time TempWeatherWind HumidityBarometerVisibility
4:50 am
Mon, Jun 17
57 °FPassing clouds.5 mph88%29.89 "HgN/A
3:50 am59 °FPassing clouds.No wind88%29.89 "HgN/A
2:50 am59 °FPassing clouds.5 mph88%29.89 "HgN/A
1:50 am59 °FPassing clouds.5 mph82%29.89 "HgN/A
12:50 am61 °FPassing clouds.5 mph83%29.89 "HgN/A
11:50 pm
Sun, Jun 16
63 °FPartly cloudy.2 mph77%29.92 "HgN/A
10:50 pm63 °FPartly cloudy.9 mph73%29.89 "HgN/A
9:50 pm64 °FPassing clouds.12 mph68%29.86 "HgN/A
9:23 pm61 °FPassing clouds.12 mph83%29.86 "HgN/A
8:35 pm59 °FRain showers. Passing clouds.10 mph94%29.92 "Hg4 mi
7:50 pm61 °FSprinkles. Partly sunny.17 mph83%29.95 "HgN/A
6:50 pm66 °FThunderstorms. Partly sunny.13 mph56%29.89 "HgN/A
6:31 pm68 °FThunderstorms. Partly sunny.10 mph56%29.86 "HgN/A
6:02 pm66 °FThunderstorms. Partly sunny.18 mph64%29.83 "HgN/A
5:50 pm66 °FThunderstorms. Partly sunny.17 mph60%29.83 "HgN/A
5:27 pm64 °FThunderstorms. Partly sunny.22 mph73%29.86 "Hg4 mi
5:13 pm70 °FThunderstorms. Partly sunny.23 mph57%29.83 "HgN/A
4:50 pm77 °FThunderstorms. Partly sunny.8 mph44%29.83 "HgN/A
4:01 pm79 °FThunderstorms. Partly sunny.12 mph42%29.83 "HgN/A
2:50 pm79 °FScattered clouds.8 mph42%29.86 "HgN/A
1:50 pm77 °FScattered clouds.9 mph42%29.86 "HgN/A
12:50 pm77 °FScattered clouds.7 mph44%29.89 "HgN/A
11:50 am75 °FPassing clouds.5 mph50%29.92 "HgN/A
10:50 am72 °FPassing clouds.3 mph57%29.92 "HgN/A
9:50 am70 °FPassing clouds.3 mph60%29.92 "HgN/A
8:50 am68 °FPassing clouds.2 mph64%29.92 "HgN/A
7:50 am64 °FSunny.2 mph73%29.92 "Hg10 mi
6:50 am59 °FSunny.No wind88%29.92 "Hg10 mi
Weather by CustomWeather, © 2019

See weather overview